• In Belarus
  • List of Countries
  • For 7 days
  • Water Temperature
  • Satellite Maps
  • Weather Map
  • Weather Widgets
  • user-avatar
    Login

    Hourly Weather Kalat

    Today, 22 February, Friday

    Time Temperature Precipitation Wind Pressure Humidity
    00:00 -21°C° 0 mm 1 mps 462 mmHg 83%
    01:00 -21°C° 0 mm 1 mps 462 mmHg 80%
    02:00 -24°C° 0 mm 2 mps 462 mmHg 76%
    03:00 -24°C° 0 mm 2 mps 462 mmHg 74%
    04:00 -24°C° 0 mm 2 mps 462 mmHg 71%
    05:00 -24°C° 0 mm 2 mps 462 mmHg 69%
    06:00 -24°C° 0 mm 2 mps 463 mmHg 67%
    07:00 -23°C° 0 mm 2 mps 464 mmHg 64%
    08:00 -21°C° 0 mm 2 mps 465 mmHg 62%
    09:00 -18°C° 0 mm 2 mps 467 mmHg 60%
    10:00 -15°C° 0 mm 2 mps 469 mmHg 58%
    11:00 -12°C° 0 mm 2 mps 470 mmHg 55%
    12:00 -10°C° 0 mm 2 mps 471 mmHg 55%
    13:00 -9°C° 0 mm 2 mps 471 mmHg 55%
    14:00 -10°C° 0 mm 3 mps 471 mmHg 54%
    15:00 -10°C° 0 mm 2 mps 470 mmHg 59%
    16:00 -12°C° 0 mm 2 mps 470 mmHg 64%
    17:00 -13°C° 0 mm 2 mps 469 mmHg 68%
    18:00 -15°C° 0 mm 2 mps 468 mmHg 72%
    19:00 -18°C° 0 mm 2 mps 466 mmHg 76%
    20:00 -22°C° 0 mm 3 mps 465 mmHg 80%
    21:00 -23°C° 0 mm 3 mps 465 mmHg 79%
    22:00 -23°C° 0 mm 3 mps 465 mmHg 79%
    23:00 -24°C° 0 mm 3 mps 465 mmHg 79%

    Tomorrow, 23 February, Saturday

    Time Temperature Precipitation Wind Pressure Humidity
    00:00 -24°C° 0 mm 3 mps 464 mmHg 74%
    01:00 -24°C° 0 mm 3 mps 464 mmHg 69%
    02:00 -24°C° 0 mm 3 mps 464 mmHg 64%
    03:00 -24°C° 0 mm 3 mps 464 mmHg 60%
    04:00 -24°C° 0 mm 3 mps 464 mmHg 56%
    05:00 -21°C° 0 mm 2 mps 464 mmHg 51%
    06:00 -21°C° 0 mm 2 mps 465 mmHg 49%
    07:00 -20°C° 0 mm 2 mps 465 mmHg 47%
    08:00 -19°C° 0 mm 2 mps 466 mmHg 45%
    09:00 -16°C° 0 mm 2 mps 467 mmHg 43%
    10:00 -14°C° 0 mm 2 mps 469 mmHg 41%
    11:00 -10°C° 0 mm 2 mps 470 mmHg 39%
    12:00 -10°C° 0 mm 2 mps 470 mmHg 41%
    13:00 -10°C° 0 mm 2 mps 470 mmHg 43%
    14:00 -9°C° 0 mm 2 mps 470 mmHg 46%
    15:00 -9°C° 0.1 mm 1 mps 469 mmHg 57%
    16:00 -9°C° 0.1 mm 1 mps 469 mmHg 68%
    17:00 -10°C° 0.1 mm 1 mps 468 mmHg 79%
    18:00 -11°C° 0.1 mm 1 mps 468 mmHg 81%
    19:00 -12°C° 0.1 mm 1 mps 467 mmHg 84%
    20:00 -14°C° 0.1 mm 1 mps 467 mmHg 86%
    21:00 -14°C° 0.1 mm 1 mps 466 mmHg 86%
    22:00 -15°C° 0.1 mm 1 mps 466 mmHg 85%
    23:00 -16°C° 0.1 mm 1 mps 465 mmHg 85%

    Day after tomorrow, 24 February, Sunday

    Time Temperature Precipitation Wind Pressure Humidity
    00:00 -16°C° 0 mm 1 mps 465 mmHg 85%
    01:00 -17°C° 0 mm 1 mps 464 mmHg 84%
    02:00 -18°C° 0 mm 1 mps 464 mmHg 84%
    03:00 -18°C° 0 mm 1 mps 463 mmHg 84%
    04:00 -19°C° 0 mm 1 mps 463 mmHg 84%
    05:00 -19°C° 0 mm 1 mps 462 mmHg 85%
    06:00 -19°C° 0 mm 1 mps 462 mmHg 83%
    07:00 -18°C° 0 mm 1 mps 463 mmHg 82%
    08:00 -18°C° 0 mm 1 mps 463 mmHg 81%
    09:00 -16°C° 0 mm 1 mps 464 mmHg 73%
    10:00 -14°C° 0 mm 1 mps 465 mmHg 64%
    11:00 -13°C° 0 mm 1 mps 466 mmHg 56%
    12:00 -12°C° 0.1 mm 1 mps 466 mmHg 61%
    13:00 -11°C° 0.1 mm 1 mps 467 mmHg 65%
    14:00 -12°C° 0.1 mm 2 mps 467 mmHg 70%
    15:00 -13°C° 0.3 mm 2 mps 467 mmHg 76%
    16:00 -13°C° 0.3 mm 2 mps 467 mmHg 83%
    17:00 -13°C° 0.3 mm 2 mps 466 mmHg 89%
    18:00 -14°C° 0.2 mm 2 mps 466 mmHg 90%
    19:00 -13°C° 0.2 mm 1 mps 466 mmHg 90%
    20:00 -14°C° 0.2 mm 1 mps 466 mmHg 91%
    21:00 -15°C° 0.1 mm 1 mps 465 mmHg 90%
    22:00 -16°C° 0.1 mm 1 mps 465 mmHg 89%
    23:00 -16°C° 0.1 mm 1 mps 464 mmHg 88%

    25 February, Monday

    Time Temperature Precipitation Wind Pressure Humidity
    00:00 -17°C° 0.1 mm 1 mps 464 mmHg 88%
    01:00 -17°C° 0.1 mm 1 mps 464 mmHg 87%
    02:00 -17°C° 0.1 mm 1 mps 464 mmHg 86%
    03:00 -17°C° 0.1 mm 1 mps 463 mmHg 86%
    04:00 -17°C° 0.1 mm 1 mps 463 mmHg 86%
    05:00 -18°C° 0.1 mm 1 mps 463 mmHg 86%
    06:00 -17°C° 0 mm 1 mps 463 mmHg 86%
    07:00 -17°C° 0 mm 1 mps 464 mmHg 85%
    08:00 -17°C° 0 mm 1 mps 464 mmHg 84%
    09:00 -15°C° 0 mm 1 mps 465 mmHg 77%
    10:00 -16°C° 0 mm 2 mps 466 mmHg 71%
    11:00 -14°C° 0 mm 2 mps 467 mmHg 65%
    12:00 -14°C° 0.1 mm 2 mps 467 mmHg 64%
    13:00 -13°C° 0.1 mm 2 mps 467 mmHg 64%
    14:00 -13°C° 0.1 mm 2 mps 467 mmHg 64%
    15:00 -13°C° 0.2 mm 2 mps 466 mmHg 71%
    16:00 -13°C° 0.2 mm 2 mps 466 mmHg 77%
    17:00 -13°C° 0.2 mm 2 mps 466 mmHg 84%
    18:00 -13°C° 0.2 mm 1 mps 466 mmHg 86%
    19:00 -14°C° 0.2 mm 1 mps 465 mmHg 87%
    20:00 -15°C° 0.2 mm 1 mps 464 mmHg 89%
    21:00 -16°C° 0.1 mm 1 mps 464 mmHg 88%
    22:00 -17°C° 0.1 mm 1 mps 463 mmHg 87%
    23:00 -20°C° 0.1 mm 2 mps 463 mmHg 86%

    26 February, Tuesday

    Time Temperature Precipitation Wind Pressure Humidity
    00:00 -21°C° 0 mm 2 mps 462 mmHg 86%
    01:00 -21°C° 0 mm 2 mps 461 mmHg 85%
    02:00 -23°C° 0 mm 2 mps 461 mmHg 84%
    03:00 -23°C° 0 mm 2 mps 460 mmHg 84%
    04:00 -23°C° 0 mm 2 mps 460 mmHg 84%
    05:00 -24°C° 0 mm 2 mps 460 mmHg 84%
    06:00 -23°C° 0 mm 2 mps 460 mmHg 84%
    07:00 -21°C° 0 mm 2 mps 461 mmHg 83%
    08:00 -21°C° 0 mm 2 mps 462 mmHg 82%
    09:00 -18°C° 0 mm 2 mps 463 mmHg 77%
    10:00 -16°C° 0 mm 2 mps 465 mmHg 72%
    11:00 -13°C° 0 mm 2 mps 466 mmHg 67%
    12:00 -13°C° 0.1 mm 2 mps 466 mmHg 67%
    13:00 -12°C° 0.1 mm 2 mps 466 mmHg 67%
    14:00 -12°C° 0.1 mm 2 mps 466 mmHg 66%
    15:00 -12°C° 0.3 mm 2 mps 466 mmHg 73%
    16:00 -13°C° 0.3 mm 2 mps 465 mmHg 79%
    17:00 -13°C° 0.3 mm 2 mps 465 mmHg 86%
    18:00 -14°C° 0.2 mm 2 mps 464 mmHg 87%
    19:00 -14°C° 0.2 mm 1 mps 463 mmHg 88%
    20:00 -15°C° 0.2 mm 1 mps 463 mmHg 89%
    21:00 -17°C° 0 mm 1 mps 461 mmHg 90%
    22:00 -18°C° 0 mm 1 mps 460 mmHg 90%
    23:00 -19°C° 0 mm 1 mps 459 mmHg 90%

    27 February, Wednesday

    Time Temperature Precipitation Wind Pressure Humidity
    00:00 -20°C° 0 mm 1 mps 458 mmHg 90%
    01:00 -20°C° 0 mm 1 mps 458 mmHg 89%
    02:00 -20°C° 0 mm 1 mps 457 mmHg 89%
    03:00 -21°C° 0 mm 1 mps 457 mmHg 89%
    04:00 -22°C° 0 mm 1 mps 456 mmHg 89%
    05:00 -22°C° 0 mm 1 mps 455 mmHg 89%
    06:00 -21°C° 0 mm 1 mps 456 mmHg 85%
    07:00 -20°C° 0 mm 1 mps 457 mmHg 81%
    08:00 -19°C° 0 mm 1 mps 458 mmHg 78%
    09:00 -18°C° 0 mm 2 mps 460 mmHg 73%
    10:00 -15°C° 0 mm 2 mps 462 mmHg 68%
    11:00 -12°C° 0 mm 2 mps 464 mmHg 63%
    12:00 -12°C° 0 mm 2 mps 464 mmHg 61%
    13:00 -10°C° 0 mm 2 mps 464 mmHg 58%
    14:00 -9°C° 0 mm 2 mps 465 mmHg 56%
    15:00 -10°C° 0 mm 2 mps 464 mmHg 60%
    16:00 -12°C° 0 mm 2 mps 463 mmHg 63%
    17:00 -13°C° 0 mm 2 mps 463 mmHg 67%
    18:00 -15°C° 0 mm 2 mps 462 mmHg 70%
    19:00 -19°C° 0 mm 3 mps 460 mmHg 72%
    20:00 -23°C° 0 mm 4 mps 459 mmHg 75%
    21:00 -23°C° 0 mm 4 mps 459 mmHg 74%
    22:00 -24°C° 0 mm 4 mps 459 mmHg 73%
    23:00 -24°C° 0 mm 4 mps 459 mmHg 72%
    Show more